Starlink 32639

operational
NORAD ID: 62153 Int'l Des: 2024-224 Owner: SPXS Country: US Constellation: starlink
LEOCIRCULAR

Starlink 32639について

説明を読み込み中...

リアルタイム位置

3D地球を読み込み中...

次回通過

高度履歴

Altitude vs Time

uPlot chart will show altitude changes over time

軌道要素

1 62153U 24224Q 26036.68905056 .00062227 00000-0 22489-2 0 9993
2 62153 43.0037 339.0250 0001020 278.8697 81.2039 15.27622402 67421
Epoch: Feb 5, 2026 • Age: 7 hours

現在のステータス

高度 482.3 km
速度 7.63 km/s
衛星直下点 5.46°N, 21.94°E
打ち上げ日 Nov 30, 2024
運用期間 1.1 years
タイプ internet

技術仕様

分類 Payload
質量 730.00 kg
乾燥質量 700.00 kg
総質量 730.00 kg
長さ 0.30 m
直径 4.10 m
スパン 29.00 m
形状 Box + pan
製造者 SPXS
バスタイプ Starlink V2M
フェーズステータス In Orbit
所有者/国 SPXS/US

大規模コンステレーション

Loading constellations...